Location: Fultenbach
(48.4918°N, 10.5731°E)
Time: 22:14:44
(UTC+00:00)

MOS 1 Rocket - Pass Details

Date: 13 December 2025
Orbit: 610 x 812 km, 97.4° (Epoch: 12 April)

Event Time Altitude Azimuth Distance (km) Brightness Sun altitude
Rises 15:33:36 0° 120° (ESE) 3,170 6.4 -2.4°
Reaches altitude 10° 15:36:24 10° 103° (ESE) 2,286 5.6 -2.7°
Drops below altitude 10° 15:43:35 10° 15° (NNE) 2,370 5.6 -3.8°
Maximum altitude 17:17:19 73° 258° (WSW) 806 3.7 -18.0°
Sets 17:24:59 0° 346° (NNW) 3,321 6.8 -19.2°
